Flag for Japan Weather past 2 weeks in Hamamatsu, Japan

Now
53 °F

Light rain. Overcast.


Feels Like: 49 °F
Forecast: 56 / 60 °F
Wind: 10 mph from Northeast

Location: Omaezaki


UV Index: 0 (Low)

Visibility: 4 mi


Pressure: 30.11 "Hg

Humidity: 99%

Dew point: 53 °F

Location of HamamatsuLocation

Historic Weather in Hamamatsu

°F

Hamamatsu temperature yesterday

Maximum temperature yesterday: 54 °F (at 12:00 AM)
Minimum temperature yesterday: 52 °F (at 11:00 PM)
Average temperature yesterday: 53 °F

Past Weeks' High & Low Weather Summary

 TemperatureHumidityPressure
High68 °F (Apr 10, 4:00 PM)100% (Apr 18, 2:00 PM)30.21 "Hg (Apr 18, 2:00 PM)
Low42 °F (Apr 7, 6:00 AM)29% (Apr 6, 5:00 PM)29.72 "Hg (Apr 6, 2:00 PM)
Average56 °F66%29.97 "Hg
* Reported Apr 6 1:00 AM — Apr 21 1:00 AM, Hamamatsu, Weather by CustomWeather, © 2014

Note: Actual official high and low records may vary slightly from our data, if they occured in-between our weather recording intervals... More about our weather records

Advertising

Historic Weather Conditions — Data for Previous 24 hours

 ConditionsComfort  
Time TempWeatherWind HumidityBarometerVisibility
1:00 AM
Apr 21
52 °FLight rain. Overcast.12 mph99%30.14 "Hg3 mi
12:00 AM53 °FLight rain. Overcast.12 mph97%30.15 "Hg6 mi
11:00 PM
Apr 20
52 °FLight rain. Overcast.13 mph95%30.16 "Hg3 mi
10:00 PM53 °FLight rain. Overcast.12 mph93%30.16 "Hg6 mi
9:00 PM53 °FLight rain. Overcast.12 mph88%30.17 "Hg12 mi
8:00 PM53 °FLight rain. Overcast.9 mph87%30.18 "Hg12 mi
7:00 PM53 °FLight rain. Overcast.13 mph86%30.17 "Hg12 mi
6:00 PM53 °FLight rain. Overcast.9 mph84%30.16 "Hg12 mi
5:00 PM54 °FLight rain. Cloudy.6 mph85%30.16 "Hg12 mi
4:00 PM54 °FLight rain. Cloudy.8 mph81%30.15 "Hg10 mi
3:00 PM54 °FCool.7 mph79%30.17 "Hg12 mi
2:00 PM54 °FLight rain. Cloudy.8 mph84%30.18 "Hg9 mi
1:00 PM53 °FLight rain. Cloudy.7 mph78%30.21 "Hg7 mi
12:00 PM53 °FCool.9 mph70%30.20 "Hg12 mi
11:00 AM53 °FCool.9 mph73%30.21 "Hg12 mi
10:00 AM53 °FCool.9 mph72%30.20 "Hg12 mi
9:00 AM53 °FCool.9 mph76%30.20 "Hg12 mi
8:00 AM53 °FCool.9 mph76%30.20 "Hg12 mi
7:00 AM53 °FCool.13 mph67%30.19 "Hg12 mi
6:00 AM53 °FCool.12 mph67%30.19 "Hg12 mi
5:00 AM53 °FCool.9 mph69%30.16 "Hg12 mi
4:00 AM53 °FCool.8 mph76%30.14 "Hg12 mi
3:00 AM53 °FCool.8 mph81%30.16 "Hg12 mi
2:00 AM53 °FCool.14 mph71%30.15 "Hg12 mi
Weather by CustomWeather, © 2014

See weather overview